Regional Weather Roundup
Issued by NWS

Home | Current Version | Previous Version | Graphics & Text | Print | Product List | Glossary On
Versions: 1 2 3 4 5 6 7 8 9 10 11 12 13 14 15 16 17 18 19 20 21 22 23 24 25 26 27 28 29 30 31 32 33 34 35 36 37 38 39 40 41 42 43 44 45 46 47 48 49 50
661
ASUS45 KTFX 280210
RWRMT
MONTANA REGIONAL WEATHER ROUNDUP
NATIONAL WEATHER SERVICE GREAT FALLS MT
800 PM MDT WED JUL 27 2016

NOTE: "FAIR" INDICATES FEW OR NO CLOUDS BELOW 12000 FEET WITH NO
SIGNIFICANT WEATHER AND/OR OBSTRUCTIONS TO VISIBILITY.

MTZ001>007-043-280300-
WEST OF THE DIVIDE

CITY           SKY/WX    TMP DP  RH WIND       PRES   REMARKS
KALISPELL      PTSUNNY   80  51  36 NE15G31   30.05R
MISSOULA       PTSUNNY   85  44  23 N13       30.04S
BUTTE          CLEAR     81  40  23 VRB3      30.17S
MULLAN PASS    MOSUNNY   71  48  43 VRB7      30.26R
ANACONDA         N/A     75  48  38 NW12      30.14R
DEER LODGE       N/A     75  48  38 NE8       30.16S
EUREKA           N/A     75  52  43 NW8G18    30.09R
HAMILTON         N/A     81  52  36 N13G18    30.05R
LIBBY            N/A     86  46  25 NE14      30.02R
PLAINS           N/A     76  57  51 CALM      30.05
RONAN            N/A     76  60  57 N2        30.10R
$$

MTZ008-052>055-280300-
SOUTHWEST MONTANA

CITY           SKY/WX    TMP DP  RH WIND       PRES   REMARKS
BOZEMAN        CLEAR     79  47  32 N9        30.10R
DILLON         CLEAR     75  47  36 NE14      30.10S
W YELLOWSTONE  CLOUDY    72  41  33 W6        30.26R
ENNIS          CLEAR     81  41  24 N18       30.17S
THREE FORKS      N/A     82 -37   1 NW13      30.09R
TWIN BRIDGES     N/A     82  45  27 NW10      30.07F
$$

MTZ009-010-012-014-046-048-049-054-280300-
EAST SLOPES AND CENTRAL MONTANA

CITY           SKY/WX    TMP DP  RH WIND       PRES   REMARKS
CUT BANK       LGT RAIN  62  55  77 E15       30.16F
GREAT FALLS    CLEAR     77  51  40 E14       30.13R
MALMSTROM AFB  PTCLDY    76  53  44 NE18      30.14R
HELENA         MOCLDY    79  48  33 NE10      30.09F
CHOTEAU          N/A     68  50  52 N21G36    30.20R
CONRAD           N/A     73  62  68 W9        30.18R
$$

MTZ011-013-016-021-045-047-050-051-280300-
NORTH CENTRAL MONTANA

CITY           SKY/WX    TMP DP  RH WIND       PRES   REMARKS
HAVRE          CLEAR     73  57  57 E10       30.14S
LEWISTOWN      CLEAR     72  59  63 N13       30.19R
N BAR RANCH      N/A     68  57  68 NE12G18   30.23R
CHINOOK          N/A     72  61  68 E6        30.14S
$$

MTZ017>020-022>027-061-062-280300-
NORTHEAST MONTANA

CITY           SKY/WX    TMP DP  RH WIND       PRES   REMARKS
GLASGOW        LGT RAIN  61  58  90 S13G22    30.12R
JORDAN           N/A     66  63  90 N9        30.12S
SIDNEY         CLOUDY    69  61  75 NE7       30.11F
WOLF POINT     CLOUDY    71  60  68 NE6       30.12S
PLENTYWOOD       N/A     70  57  64 E3        30.14S
$$

MTZ028>42-056>058-280300-
SOUTHCENTRAL AND SOUTHEAST MONTANA

CITY           SKY/WX    TMP DP  RH WIND       PRES   REMARKS
BAKER          CLEAR     71  60  68 E5        30.13R
BILLINGS       PTCLDY    75  60  59 N7        30.11S
LIVINGSTON     CLEAR     78  50  37 E20G30    30.15R
MILES CITY     LGT RAIN  78  59  51 NE15      30.07R
FORSYTH          N/A     72  63  73 NW15G31   30.10R
LAUREL           N/A     76  55  47 N1        30.10
ROUNDUP          N/A     75  56  51 CALM      30.05R
$$

REGIONAL REPORTS...DAKOTAS

CITY           SKY/WX    TMP DP  RH WIND       PRES   REMARKS
WILLISTON      MOCLDY    68  58  70 E5        30.13S
MINOT          CLOUDY    71  60  68 NE6       30.12S
DICKINSON      PTCLDY    66  59  78 NE12      30.11R
BEACH          MOCLDY    68  64  88 NE7       30.16R
CROSBY           N/A     66  64  94 S6        30.16S
WATFORD CITY     N/A    N/A N/A N/A MISG        N/A
BISMARCK       MOCLDY    72  60  66 E7        30.11R
GRAND FORKS    CLOUDY    71  58  63 N12       30.06R
FARGO          CLOUDY    71  60  68 N14       30.03R
BUFFALO SD       N/A     72  56  57 E12       30.06F
RAPID CITY     CLEAR     72  58  61 E7        30.13R
$$

REGIONAL REPORTS...WYOMING/IDAHO/WASHINGTON

CITY           SKY/WX    TMP DP  RH WIND       PRES   REMARKS
GILLETTE       CLEAR     78  50  37 NE8       30.11F
SHERIDAN       CLEAR     83  46  27 N6        30.09S
BUFFALO WY     PTCLDY    80  50  34 E9        30.17R
CODY           CLOUDY    75  46  35 NW9G20    30.20R THUNDER
YELLOWSTONE LA   N/A     57  50  77 CALM      30.37F
IDAHO FALLS    CLEAR     89  37  16 S8        30.05F
SALMON         MOSUNNY   82  52  34 CALM      29.97F
BOISE          SUNNY     97  39  13 NW13      29.92F HX  92
SPOKANE        MOSUNNY   91  42  18 NW8       30.01S
$$

REGIONAL REPORTS...ALBERTA

CITY           SKY/WX    TMP DP  RH WIND       PRES   REMARKS
EDMONTON       SUNNY     75  54  46 S5        30.11S
CALGARY        PTSUNNY   73  55  53 S2        30.18R
LETHBRIDGE     LGT RAIN  66  54  63 NW13G18   30.15F
MEDICINE HAT   MOCLDY    79  55  44 E6        30.11S
WATERTON GATE    N/A     70  54  56 NE2         N/A
CARDSTON         N/A     66  57  72 N5          N/A
MILK RIVER       N/A     72  55  56 E8          N/A
ONEFOUR          N/A     73  54  49 E12         N/A
$$

REGIONAL REPORTS...SASKATCHEWAN

CITY           SKY/WX    TMP DP  RH WIND       PRES   REMARKS
SWIFT CURRENT  CLEAR     68  54  60 E7        30.16S
REGINA         MOCLDY    70  55  60 E8        30.14S
SASKATOON      PTCLDY    73  54  49 S10       30.14F
CYPRESS HILLS    N/A     66  54  63 E3          N/A
VAL MARIE        N/A     68  59  73 SE3         N/A
ROCKGLEN         N/A     68  55  64 E3          N/A
ASSINIBOIA       N/A     75  61  60 W2          N/A
$$




USA.gov is the U.S. government's official web portal to all federal, state and local government web resources and services.